Weather History for Immokalee Regional Airport [I, FL

Change the Weather History Date:

Sunday, May 11, 2014

  Actual Average (KFMY) Record (KFMY)
Temperature  
Mean Temperature 82 °F 78 °F  
Max Temperature 95 °F 89 °F 95 °F (2012)
Min Temperature 68 °F 68 °F 55 °F (1908)
Degree Days  
Heating Degree Days 0 0  
Month to date heating degree days 0  
Since 1 July heating degree days 287  
Cooling Degree Days 16 13  
Month to date cooling degree days 134  
Year to date cooling degree days 764  
Growing Degree Days 32 (Base 50)    
Moisture  
Dew Point 68 °F    
Average Humidity 62    
Maximum Humidity 100    
Minimum Humidity 34    
Precipitation  
Precipitation 0.00 in 0.06 in 3.89 in (1977)
Month to date precipitation 0.65  
Year to date precipitation 9.80  
Sea Level Pressure  
Sea Level Pressure 30.10 in    
Wind  
Wind Speed 5 mph (ESE)    
Max Wind Speed 13 mph    
Max Gust Speed 18 mph    
Visibility 7 miles    
Events      
T = Trace of Precipitation, MM = Missing Value Source: NWS Daily Summary

Daily Weather History Graph

Daily Weather History Graph

Search for Another Location

Airport:

Trip Planner

Search our weather history database for the weather conditions in past years. The results will help you decide how hot, cold, wet, or windy it might be!

Date:

Astronomy

May. 11, 2014 Rise Set
Actual Time 6:41 AM EDT 8:03 PM EDT
Civil Twilight 6:16 AM EDT 8:28 PM EDT
Nautical Twilight 5:46 AM EDT 8:57 PM EDT
Astronomical Twilight 5:15 AM EDT 9:28 PM EDT
Moon 5:14 PM EDT (5/11) 4:25 AM EDT (5/11)
Length of Visible Light 14h 12m
Length of Day
13h 22m
Waxing Gibbous, 89% of the Moon is Illuminated
May 11
Waxing Gibbous
May 14
Full
May 21
Last Quarter
May 28
New
Jun 5
First Quarter

Hourly Weather History & Observations

Time (EDT) Temp. Heat Index Dew Point Humidity Pressure Visibility Wind Dir Wind Speed Gust Speed Precip Events Conditions
12:15 AM 73.4 °F - 73.4 °F 100% 30.11 in 7.0 mi ESE 5.8 mph - 0.00 in   Clear
12:35 AM 73.4 °F - 73.4 °F 100% 30.11 in 8.0 mi Calm Calm - 0.00 in   Clear
12:55 AM 71.6 °F - 71.6 °F 100% 30.11 in 7.0 mi Calm Calm - 0.00 in   Clear
1:15 AM 71.6 °F - 71.6 °F 100% 30.11 in 8.0 mi ENE 4.6 mph - 0.00 in   Clear
1:35 AM 71.6 °F - - N/A% 30.11 in 8.0 mi East 5.8 mph - 0.00 in   Clear
1:55 AM 71.6 °F - - N/A% 30.10 in 7.0 mi Calm Calm - 0.00 in   Clear
2:15 AM 69.8 °F - - N/A% 30.09 in 7.0 mi Calm Calm - 0.00 in   Clear
2:35 AM 69.8 °F - - N/A% 30.08 in 6.0 mi East 5.8 mph - 0.00 in   Clear
2:55 AM 71.6 °F - - N/A% 30.08 in 7.0 mi East 4.6 mph - 0.00 in   Clear
3:15 AM 71.6 °F - - N/A% 30.07 in 7.0 mi East 4.6 mph - 0.00 in   Clear
3:35 AM 71.6 °F - - N/A% 30.07 in 6.0 mi ESE 3.5 mph - 0.00 in   Clear
3:55 AM 69.8 °F - - N/A% 30.07 in 7.0 mi Calm Calm - 0.00 in   Clear
4:15 AM 69.8 °F - - N/A% 30.07 in 6.0 mi Calm Calm - 0.00 in   Clear
4:35 AM 69.8 °F - - N/A% 30.07 in 6.0 mi Calm Calm - 0.00 in   Clear
4:55 AM 69.8 °F - - N/A% 30.07 in 5.0 mi Calm Calm - 0.00 in   Clear
5:15 AM 69.8 °F - - N/A% 30.07 in 7.0 mi East 3.5 mph - 0.00 in   Clear
5:35 AM 69.8 °F - - N/A% 30.08 in 6.0 mi Calm Calm - 0.00 in   Clear
5:55 AM 69.8 °F - - N/A% 30.09 in 5.0 mi Calm Calm - 0.00 in   Clear
6:15 AM 68.0 °F - - N/A% 30.10 in 3.0 mi Calm Calm - 0.00 in   Clear
6:35 AM 68.0 °F - - N/A% 30.10 in 5.0 mi Calm Calm - 0.00 in   Clear
6:55 AM 68.0 °F - - N/A% 30.10 in 4.0 mi SE 3.5 mph - 0.00 in   Clear
7:15 AM 68.0 °F - - N/A% 30.11 in 5.0 mi Calm Calm - 0.00 in   Clear
7:35 AM 69.8 °F - - N/A% 30.12 in 5.0 mi NE 3.5 mph - 0.00 in   Clear
7:55 AM 69.8 °F - - N/A% 30.12 in 4.0 mi Calm Calm - 0.00 in   Clear
8:15 AM 71.6 °F - - N/A% 30.13 in 5.0 mi Calm Calm - 0.00 in   Clear
8:35 AM 73.4 °F - - N/A% 30.13 in 5.0 mi East 4.6 mph - 0.00 in   Clear
8:55 AM 78.8 °F - 78.8 °F 100% 30.14 in 7.0 mi SE 8.1 mph - 0.00 in   Clear
9:15 AM 80.6 °F 88.1 °F 78.8 °F 94% 30.15 in 7.0 mi SE 6.9 mph - 0.00 in   Clear
9:35 AM 82.4 °F 92.4 °F 78.8 °F 89% 30.14 in 6.0 mi SE 11.5 mph - 0.00 in   Clear
9:55 AM 82.4 °F 89.5 °F 75.2 °F 79% 30.15 in 6.0 mi SE 11.5 mph - 0.00 in   Partly Cloudy
10:15 AM 84.2 °F 92.3 °F 75.2 °F 74% 30.16 in 6.0 mi SE 11.5 mph - 0.00 in   Scattered Clouds
10:35 AM 84.2 °F 92.3 °F 75.2 °F 74% 30.15 in 7.0 mi SE 10.4 mph - 0.00 in   Partly Cloudy
10:55 AM 82.4 °F 89.5 °F 75.2 °F 79% 30.15 in 7.0 mi SE 11.5 mph - 0.00 in   Clear
11:15 AM 87.8 °F 95.6 °F 73.4 °F 62% 30.15 in 6.0 mi SE 11.5 mph - 0.00 in   Clear
11:35 AM 87.8 °F 93.8 °F 71.6 °F 58% 30.14 in 6.0 mi SSE 12.7 mph - 0.00 in   Clear
11:55 AM 91.4 °F 96.8 °F 69.8 °F 49% 30.14 in 6.0 mi ESE 11.5 mph - 0.00 in   Partly Cloudy
12:15 PM 86.0 °F 90.4 °F 69.8 °F 58% 30.14 in 6.0 mi SE 9.2 mph - 0.00 in   Partly Cloudy
12:35 PM 91.4 °F 96.8 °F 69.8 °F 49% 30.14 in 7.0 mi ESE 11.5 mph - 0.00 in   Clear
12:55 PM 91.4 °F 96.8 °F 69.8 °F 49% 30.13 in 7.0 mi East 5.8 mph - 0.00 in   Clear
1:15 PM 91.4 °F 96.8 °F 69.8 °F 49% 30.13 in 7.0 mi ESE 8.1 mph - 0.00 in   Partly Cloudy
1:35 PM 91.4 °F 94.0 °F 66.2 °F 43% 30.12 in 8.0 mi SE 10.4 mph - 0.00 in   Partly Cloudy
2:15 PM 91.4 °F 93.2 °F 64.4 °F 41% 30.11 in 7.0 mi SE 9.2 mph - 0.00 in   Scattered Clouds
2:35 PM 93.2 °F 94.1 °F 62.6 °F 36% 30.10 in 8.0 mi East 9.2 mph - 0.00 in   Clear
2:55 PM 93.2 °F 94.1 °F 62.6 °F 36% 30.10 in 8.0 mi ENE 9.2 mph 18.4 mph 0.00 in   Clear
3:15 PM 95.0 °F 96.0 °F 62.6 °F 34% 30.08 in 6.0 mi East 3.5 mph - 0.00 in   Partly Cloudy
3:35 PM 93.2 °F 94.9 °F 64.4 °F 38% 30.07 in 8.0 mi SE 10.4 mph 17.3 mph 0.00 in   Partly Cloudy
3:55 PM 91.4 °F 93.2 °F 64.4 °F 41% 30.07 in 8.0 mi East 10.4 mph - 0.00 in   Scattered Clouds
4:35 PM 91.4 °F 93.2 °F 64.4 °F 41% 30.05 in 9.0 mi East 6.9 mph - 0.00 in   Scattered Clouds
4:55 PM 91.4 °F 93.2 °F 64.4 °F 41% 30.05 in 8.0 mi SE 10.4 mph - 0.00 in   Mostly Cloudy
5:15 PM 91.4 °F 93.2 °F 64.4 °F 41% 30.04 in 7.0 mi ESE 11.5 mph - 0.00 in   Scattered Clouds
5:35 PM 91.4 °F 93.2 °F 64.4 °F 41% 30.04 in 8.0 mi SE 11.5 mph - 0.00 in   Scattered Clouds
5:55 PM 89.6 °F 91.1 °F 64.4 °F 43% 30.04 in 7.0 mi SE 10.4 mph - 0.00 in   Scattered Clouds
6:15 PM 89.6 °F 91.1 °F 64.4 °F 43% 30.04 in 7.0 mi East 11.5 mph - 0.00 in   Clear
6:35 PM 87.8 °F 88.5 °F 62.6 °F 43% 30.04 in 8.0 mi ESE 9.2 mph - 0.00 in   Clear
7:15 PM 87.8 °F 88.5 °F 62.6 °F 43% 30.05 in 8.0 mi East 9.2 mph - 0.00 in   Clear
7:35 PM 84.2 °F 85.6 °F 64.4 °F 51% 30.05 in 8.0 mi East 10.4 mph - 0.00 in   Clear
7:55 PM 82.4 °F 83.9 °F 64.4 °F 54% 30.06 in 9.0 mi ESE 10.4 mph - 0.00 in   Clear
8:15 PM 80.6 °F 82.3 °F 64.4 °F 58% 30.07 in 8.0 mi East 10.4 mph - 0.00 in   Clear
8:35 PM 80.6 °F 82.7 °F 66.2 °F 61% 30.08 in 9.0 mi East 9.2 mph - 0.00 in   Clear
8:55 PM 78.8 °F - 66.2 °F 65% 30.08 in 9.0 mi East 8.1 mph - 0.00 in   Clear
9:15 PM 77.0 °F - 66.2 °F 69% 30.09 in 10.0 mi East 6.9 mph - 0.00 in   Clear
9:35 PM 77.0 °F - 66.2 °F 69% 30.10 in 9.0 mi East 9.2 mph - 0.00 in   Clear
9:55 PM 75.2 °F - 66.2 °F 73% 30.11 in 10.0 mi ESE 8.1 mph - 0.00 in   Clear
10:15 PM 75.2 °F - 64.4 °F 69% 30.11 in 9.0 mi East 6.9 mph - 0.00 in   Clear
10:35 PM 73.4 °F - 64.4 °F 73% 30.12 in 10.0 mi East 6.9 mph - 0.00 in   Clear
10:55 PM 73.4 °F - 64.4 °F 73% 30.12 in 9.0 mi East 8.1 mph - 0.00 in   Clear
11:35 PM 71.6 °F - 64.4 °F 78% 30.13 in 10.0 mi East 4.6 mph - 0.00 in   Clear
11:55 PM 71.6 °F - 64.4 °F 78% 30.13 in 9.0 mi Calm Calm - 0.00 in   Clear